Rugby, ND

9:50 AM CST on December 08, 2016 (GMT -0600)
Rugby Municipal

Weather History for KRUG - December, 2012

Change the Weather History Date:

Saturday, December 8, 2012

  Actual Average Record
Temperature  
Mean Temperature 6 °F -  
Max Temperature 10 °F 22 °F 49 °F (1990)
Min Temperature 1 °F 4 °F -22 °F (2013)
Degree Days  
Heating Degree Days 58    
Moisture  
Dew Point 4 °F    
Average Humidity 86    
Maximum Humidity 92    
Minimum Humidity 72    
Precipitation  
Precipitation 0.78 in - - ()
Sea Level Pressure  
Sea Level Pressure 29.96 in    
Wind  
Wind Speed 16 mph (ENE)    
Max Wind Speed 22 mph    
Max Gust Speed 26 mph    
Visibility 5 miles    
Events Rain , Snow    
Averages and records for this station are not official NWS values.
T = Trace of Precipitation, MM = Missing Value Source: NWS Daily Summary

Daily Weather History Graph

Daily Weather History Graph

Search for Another Location

Airport or City:

Trip Planner

Search our weather history database for the weather conditions in past years. The results will help you decide how hot, cold, wet, or windy it might be!

Date:

Astronomy

Dec. 08, 2012 Rise Set
Actual Time 8:19 AM CST 4:45 PM CST
Civil Twilight 7:42 AM CST 5:21 PM CST
Nautical Twilight 7:02 AM CST 6:01 PM CST
Astronomical Twilight 6:24 AM CST 6:39 PM CST
Moon 2:24 AM CST 1:34 PM CST
Length of Visible Light 9h 39m
Length of Day
8h 26m
Waning Crescent, 28% of the Moon is Illuminated
Dec 8
Waning Crescent
Dec 13
New
Dec 19
First Quarter
Dec 28
Full
Jan 4
Last Quarter

Hourly Weather History & Observations

Time (CST) Temp. Windchill Dew Point Humidity Pressure Visibility Wind Dir Wind Speed Gust Speed Precip Events Conditions
12:15 AM 10.4 °F -5.4 °F 8.6 °F 92% 29.94 in 10.0 mi ESE 13.8 mph - N/A   Overcast
12:35 AM 10.4 °F -7.2 °F 8.6 °F 92% 29.93 in 8.0 mi East 17.3 mph 23.0 mph N/A Snow Light Snow
12:55 AM 10.4 °F -6.6 °F 8.6 °F 92% 29.92 in 1.2 mi East 16.1 mph - 0.02 in Snow Light Snow
1:15 AM 10.4 °F -7.2 °F 6.8 °F 85% 29.90 in 3.0 mi East 17.3 mph - N/A Snow Light Snow
1:35 AM 8.6 °F -9.5 °F 6.8 °F 92% 29.90 in 4.0 mi East 17.3 mph 21.9 mph 0.01 in Snow Light Snow
1:55 AM 8.6 °F -8.3 °F 6.8 °F 92% 29.90 in 1.0 mi East 15.0 mph - 0.09 in Snow Light Snow
2:15 AM 8.6 °F -8.3 °F 6.8 °F 92% 29.89 in 2.5 mi East 15.0 mph - 0.01 in Snow Light Snow
2:35 AM 8.6 °F -9.5 °F 6.8 °F 92% 29.89 in 1.5 mi East 17.3 mph - 0.04 in Snow Light Snow
2:55 AM 8.6 °F -8.3 °F 6.8 °F 92% 29.89 in 1.8 mi East 15.0 mph - 0.06 in Snow Light Snow
3:15 AM 8.6 °F -8.9 °F 6.8 °F 92% 29.89 in 2.0 mi East 16.1 mph - 0.01 in Snow Light Snow
3:35 AM 8.6 °F -7.0 °F 6.8 °F 92% 29.88 in 2.5 mi East 12.7 mph - 0.03 in Snow Light Snow
3:55 AM 8.6 °F -6.3 °F 6.8 °F 92% 29.88 in 1.5 mi East 11.5 mph - 0.10 in Snow Light Snow
4:15 AM 8.6 °F -5.5 °F 6.8 °F 92% 29.89 in 3.0 mi ENE 10.4 mph - 0.04 in Snow Light Snow
4:35 AM 8.6 °F -6.3 °F 6.8 °F 92% 29.89 in 2.5 mi East 11.5 mph - 0.06 in Snow Light Snow
4:55 AM 8.6 °F -7.7 °F 6.8 °F 92% 29.88 in 4.0 mi East 13.8 mph - 0.06 in Snow Light Snow
5:15 AM 8.6 °F -8.3 °F 6.8 °F 92% 29.87 in 5.0 mi East 15.0 mph - N/A Snow Light Snow
5:35 AM 8.6 °F -7.7 °F 5.0 °F 85% 29.87 in 4.0 mi East 13.8 mph - N/A Snow Light Snow
5:55 AM 8.6 °F -8.3 °F 5.0 °F 85% 29.87 in 2.5 mi ENE 15.0 mph - 0.02 in Snow Light Snow
6:15 AM 8.6 °F -8.9 °F 5.0 °F 85% 29.87 in 7.0 mi East 16.1 mph - 0.01 in Snow Light Snow
6:35 AM 6.8 °F -11.3 °F 5.0 °F 92% 29.87 in 7.0 mi East 16.1 mph 23.0 mph 0.01 in   Overcast
6:55 AM 6.8 °F -12.9 °F 3.2 °F 85% 29.86 in 10.0 mi East 19.6 mph 24.2 mph 0.01 in   Overcast
7:15 AM 6.8 °F -11.3 °F 5.0 °F 92% 29.87 in 10.0 mi ENE 16.1 mph 21.9 mph N/A   Overcast
7:35 AM 6.8 °F -11.8 °F 3.2 °F 85% 29.87 in 8.0 mi ENE 17.3 mph - N/A Rain Light Freezing Rain
7:55 AM 6.8 °F -12.4 °F 3.2 °F 85% 29.87 in 7.0 mi ENE 18.4 mph - N/A   Overcast
8:15 AM 6.8 °F -11.3 °F 3.2 °F 85% 29.88 in 7.0 mi ENE 16.1 mph - N/A   Overcast
8:35 AM 6.8 °F -11.3 °F 3.2 °F 85% 29.88 in 4.0 mi ENE 16.1 mph - N/A   Overcast
8:55 AM 6.8 °F -11.3 °F 3.2 °F 85% 29.88 in 3.0 mi ENE 16.1 mph - N/A   Overcast
9:15 AM 6.8 °F -11.8 °F 5.0 °F 92% 29.89 in 2.0 mi ENE 17.3 mph 24.2 mph N/A Snow Light Snow
9:35 AM 6.8 °F -11.8 °F 5.0 °F 92% 29.89 in 2.0 mi ENE 17.3 mph - N/A Rain Light Freezing Rain
9:55 AM 6.8 °F -11.8 °F 5.0 °F 92% 29.89 in 3.0 mi ENE 17.3 mph 23.0 mph N/A Rain Light Freezing Rain
10:15 AM 6.8 °F -12.4 °F 5.0 °F 92% 29.90 in 5.0 mi ENE 18.4 mph 21.9 mph N/A   Overcast
10:35 AM 6.8 °F -11.8 °F 5.0 °F 92% 29.90 in 5.0 mi ENE 17.3 mph 21.9 mph N/A Snow Light Snow
10:55 AM 6.8 °F -13.4 °F 5.0 °F 92% 29.90 in 5.0 mi ENE 20.7 mph - 0.01 in Snow Light Snow
11:15 AM 8.6 °F -10.0 °F 5.0 °F 85% 29.90 in 7.0 mi ENE 18.4 mph - N/A Snow Light Snow
11:35 AM 8.6 °F -10.0 °F 5.0 °F 85% 29.91 in 10.0 mi ENE 18.4 mph - N/A   Overcast
11:55 AM 8.6 °F -10.0 °F 5.0 °F 85% 29.91 in 9.0 mi ENE 18.4 mph 21.9 mph N/A Snow Light Snow
12:15 PM 8.6 °F -8.9 °F 5.0 °F 85% 29.91 in 3.0 mi ENE 16.1 mph 23.0 mph 0.01 in Snow Light Snow
12:35 PM 6.8 °F -11.8 °F 3.2 °F 85% 29.91 in 2.5 mi NE 17.3 mph - 0.02 in Snow Light Snow
12:55 PM 6.8 °F -11.8 °F 5.0 °F 92% 29.91 in 1.5 mi ENE 17.3 mph 24.2 mph 0.04 in Snow Light Snow
1:15 PM 6.8 °F -12.9 °F 3.2 °F 85% 29.90 in 2.0 mi ENE 19.6 mph - N/A Snow Light Snow
1:35 PM 6.8 °F -13.8 °F 3.2 °F 85% 29.91 in 2.5 mi NE 21.9 mph - 0.01 in Snow Light Snow
1:55 PM 6.8 °F -12.9 °F 5.0 °F 92% 29.91 in 1.2 mi NE 19.6 mph 26.5 mph 0.03 in Snow Light Snow
2:35 PM 8.6 °F -9.5 °F 5.0 °F 85% 29.92 in 3.0 mi NE 17.3 mph - 0.02 in Snow Light Snow
2:55 PM 8.6 °F -10.5 °F 5.0 °F 85% 29.93 in 1.8 mi NE 19.6 mph 24.2 mph 0.03 in Snow Light Snow
3:15 PM 8.6 °F -10.0 °F 5.0 °F 85% 29.94 in 2.0 mi NE 18.4 mph - N/A Snow Light Snow
3:35 PM 8.6 °F -11.0 °F 5.0 °F 85% 29.95 in 2.0 mi NE 20.7 mph 24.2 mph 0.01 in Snow Light Snow
3:55 PM 6.8 °F -12.9 °F 3.2 °F 85% 29.96 in 1.0 mi NE 19.6 mph 24.2 mph 0.05 in Snow Light Snow
4:15 PM 6.8 °F -12.9 °F 3.2 °F 85% 29.98 in 1.0 mi NE 19.6 mph 24.2 mph 0.01 in Snow Light Snow
4:35 PM 6.8 °F -11.8 °F 1.4 °F 79% 29.99 in 0.8 mi NE 17.3 mph 24.2 mph 0.04 in Snow Light Snow
4:55 PM 6.8 °F -12.9 °F 1.4 °F 79% 30.00 in 1.0 mi NE 19.6 mph 23.0 mph 0.07 in Snow Light Snow
5:15 PM 6.8 °F -10.0 °F 1.4 °F 79% 30.01 in 2.0 mi NNE 13.8 mph - 0.01 in Snow Light Snow
5:35 PM 6.8 °F -12.4 °F 1.4 °F 79% 30.03 in 2.0 mi NE 18.4 mph 25.3 mph 0.05 in Snow Light Snow
5:55 PM 5.0 °F -15.2 °F 1.4 °F 85% 30.04 in 1.8 mi NE 19.6 mph 23.0 mph 0.12 in Snow Light Snow
6:15 PM 5.0 °F -14.7 °F 1.4 °F 85% 30.05 in 2.5 mi NE 18.4 mph - 0.01 in Snow Light Snow
6:35 PM 5.0 °F -13.0 °F 1.4 °F 85% 30.07 in 2.0 mi NE 15.0 mph - 0.04 in Snow Light Snow
6:55 PM 5.0 °F -14.2 °F 1.4 °F 85% 30.07 in 2.0 mi NE 17.3 mph 26.5 mph 0.06 in Snow Light Snow
7:15 PM 5.0 °F -15.2 °F 1.4 °F 85% 30.08 in 4.0 mi NNE 19.6 mph 24.2 mph 0.01 in Snow Light Snow
7:35 PM 5.0 °F -15.2 °F 1.4 °F 85% 30.09 in 10.0 mi NNE 19.6 mph 24.2 mph 0.01 in   Overcast
8:15 PM 5.0 °F -13.0 °F -0.4 °F 78% 30.10 in 10.0 mi NNE 15.0 mph - N/A   Partly Cloudy
8:35 PM 5.0 °F -14.2 °F -0.4 °F 78% 30.11 in 10.0 mi NNE 17.3 mph - N/A   Clear
8:55 PM 5.0 °F -15.2 °F -0.4 °F 78% 30.13 in 10.0 mi NNE 19.6 mph - N/A   Clear
9:15 PM 5.0 °F -13.0 °F -0.4 °F 78% 30.13 in 10.0 mi NNE 15.0 mph - N/A   Clear
9:35 PM 5.0 °F -14.7 °F -0.4 °F 78% 30.14 in 10.0 mi NNE 18.4 mph - N/A   Clear
9:55 PM 5.0 °F -10.8 °F -0.4 °F 78% 30.15 in 10.0 mi NNE 11.5 mph - N/A   Clear
10:35 PM 5.0 °F -12.3 °F -2.2 °F 72% 30.16 in 10.0 mi NNE 13.8 mph - N/A   Clear
10:55 PM 3.2 °F -10.3 °F -2.2 °F 78% 30.17 in 10.0 mi NNE 8.1 mph - N/A   Clear
11:15 PM 5.0 °F -12.3 °F -2.2 °F 72% 30.18 in 10.0 mi NNE 13.8 mph - N/A   Clear
11:35 PM 3.2 °F -11.3 °F -2.2 °F 78% 30.19 in 10.0 mi NNE 9.2 mph - N/A   Clear
11:55 PM 1.4 °F -12.5 °F -2.2 °F 85% 30.20 in 10.0 mi North 8.1 mph - N/A   Clear